Regional Weather Roundup
Issued by NWS Charleston, SC

Home | Current Version | Previous Version | Text Only | Print | Product List | Glossary On
Versions: 1 2 3 4 5 6 7 8 9 10 11 12 13 14 15 16 17 18 19 20 21 22 23 24 25 26 27 28 29 30 31 32 33 34 35 36 37 38 39 40 41 42 43 44 45 46 47 48 49 50
000
ASUS42 KCHS 280325
RWRCHS

REGIONAL WEATHER ROUNDUP
NATIONAL WEATHER SERVICE CHARLESTON SC
1000 PM EST SAT DEC 27 2014

NOTE: "FAIR" INDICATES FEW OR NO CLOUDS BELOW 12,000 FEET WITH NO
SIGNIFICANT WEATHER AND/OR OBSTRUCTIONS TO VISIBILITY.

NOT ALL STATIONS ARE QUALITY CONTROLLED BY THE NATIONAL
WEATHER SERVICE. USE DATA WITH CAUTION...ESPECIALLY
DEWPOINT OBSERVATIONS.

SCZ027-030-031-034>040-042>050-280400-
...SOUTHEAST SOUTH CAROLINA...

CITY           SKY/WX    TMP DP  RH WIND       PRES   REMARKS
N CHARLESTON   MOCLDY    55  48  77 CALM      30.25F
WATERFRONT PRK   N/A     55 N/A N/A CALM        N/A
MOUNT PLEASANT FAIR      52  52 100 CALM      30.25F
PINOPOLIS        N/A     57  48  72 S5        30.18S
MONCKS CORNER  FAIR      52  50  93 CALM      30.25S
SUMMERVILLE    FAIR      52  52 100 CALM      30.26S
BEAUFORT MCAS  CLEAR     51  47  86 CALM      30.26S
BEAUFORT ARPT  FAIR      52  52 100 CALM      30.25F
HILTON HEAD IS CLEAR     52  48  87 CALM      30.26F
WALTERBORO     MOCLDY    52 N/A N/A CALM      30.26S
ALLENDALE      FAIR      55  54  94 CALM      30.23F

...SOUTHERN MIDLANDS AND PEE DEE...

CITY           SKY/WX    TMP DP  RH WIND       PRES   REMARKS
GEORGETOWN     NOT AVBL
KINGSTREE      NOT AVBL
ORANGEBURG     CLOUDY    52  48  86 CALM      30.24F
BARNWELL         N/A     54  52  94 CALM      30.24F
AIKEN          LGT RAIN  54  45  71 S3        30.25F
MANNING        FAIR      50 N/A N/A CALM      30.25S
COLUMBIA       MOCLDY    51  44  77 CALM      30.23F
SUMTER         MOCLDY    53  47  80 S2        30.21F
FLORENCE       PTCLDY    53  46  77 S3        30.24S
MYRTLE BEACH   CLEAR     50  45  81 CALM      30.28S
N MYRTLE BEACH PTCLDY    48  45  89 CALM      30.25S

$$

GAZ063-065-086>088-099>101-113>116-118-119-134>141-150-280400-
...SOUTHEAST GEORGIA...

CITY           SKY/WX    TMP DP  RH WIND       PRES   REMARKS
SAVANNAH ARPT  PTCLDY    53  49  86 CALM      30.26S
HUNTER AAF     CLEAR     50  49  96 CALM      30.23S
FORT STEWART   CLEAR     51  50  94 CALM      30.24F
STATESBORO     MOCLDY    56  56 100 SE3       30.23F
SYLVANIA       MOCLDY    55  55  97 SE3       30.24F
CLAXTON        MOCLDY    54  54 100 CALM      30.24F

...CSRA...CENTRAL AND FAR SOUTHEAST GEORGIA...

CITY           SKY/WX    TMP DP  RH WIND       PRES   REMARKS
THOMSON        CLOUDY    54  53  97 CALM      30.25F
AUGUSTA-BUSH   CLOUDY    51  47  86 S3        30.23F
AUGUSTA-DANIEL CLOUDY    59  45  59 SE5       30.22F
SWAINSBORO     CLOUDY    59  59 100 CALM      30.23S
VIDALIA        CLOUDY    61  55  82 S3        30.23F
EASTMAN        CLOUDY    58  58 100 CALM      30.25S
HAZLEHURST     CLOUDY    63  59  87 SE7       30.22S
ALMA           PTCLDY    59  55  87 E3        30.23F
WAYCROSS       CLEAR     60  58  92 E3        30.23F
JESUP          FAIR      55  54  94 CALM      30.24F
BAXLEY         MOCLDY    61  55  82 CALM      30.23S
BRUNSWICK      PTCLDY    54  52  94 CALM      30.25S
SAINT SIMONS   PTCLDY    58  55  90 CALM      30.24R

$$

SCZ027-028-034-036>038-045-046-048>050-GAZ119-141-280400-
...LAKE AND SUPPLEMENTAL COASTAL OBSERVATIONS...

STATION/POSITION TIME  TEMP    WIND        PRES    WAVE   SWELL
                       AIR SEA DIR/SP/G            HT/PER HT/PER/DIR
                 (UTC) (F)     (DEG/KT/KT) (MB)    (FT/S) (FT/S/D)
UPR LAKE MARION  NOT AVBL
WINYAH BAY       0300   50     310/  1     1024.0S
LAKE MURRAY      0300   51      CALM  /  1 1023.7R
ACE BASIN NERRS  0300   50        CALM     1024.0S
FORT PULASKI     0300   55 56  340/  3/  3 1025.0R
SAPELO ISLAND    0300   54      20/  5     1024.0S

$$

ANZ835-935-AMZ111-154-330-350-352-354-370-450-454-472-280400-
...C-MAN AND BUOY OBSERVATIONS...

STATION/POSITION TIME  TEMP    WIND        PRES    WAVE   SWELL
                       AIR SEA DIR/SP/G            HT/PER HT/PER/DIR
                 (UTC) (F)     (DEG/KT/KT) (MB)    (FT/S) (FT/S/D)
BUOY 41004       0300   71 74   90/ 10/ 12 1023.6F   2/11   2/11
BUOY 41008       0300   60 59   30/  6/  6 1023.9S   3/17   2/ 70/17
FOLLY BEACH CMAN 0300   56      40/  4/  4 1024.7F
CAPERS NEARSHORE 0200   56      40/  4/  6   N/A
FRIPP NEARSHORE  NOT AVBL


STATION/POSITION TIME  TEMP    WIND        PRES    WAVE   SWELL
                       AIR SEA DIR/SP/G            HT/PER HT/PER/DIR
                 (UTC) (F)     (DEG/KT/KT) (MB)    (FT/S) (FT/S/D)
5E ST. MARYS GA  0300      60                N/A     2/18   2/100/18
FRYING PAN BUOY  0300   66 69   70/  6/  8 1025.2R   3/15   3/120/15
BUOY 41025       0300   66                 1024.2F   4/15
CAPE LOOKOUT NC  0300   58     190/  5/  6 1024.0F
BUOY 41002       0156   70 74  160/  6/  8 1025.8S   6/16   5/ 70/16
BUOY 41010       0300   75 77  110/ 10/ 12 1023.0F   4/16   3/ 90/16
ST AUGUSTINE FL  0300   63     360/  8/  9 1023.8S


$$


USA.gov is the U.S. government's official web portal to all federal, state and local government web resources and services.